Regional Weather Roundup
Issued by NWS Little Rock, AR

Home | Current Version | Previous Version | Text Only | Print | Product List | Glossary Off
Versions: 1 2 3 4 5 6 7 8 9 10 11 12 13 14 15 16 17 18 19 20 21 22 23 24 25 26 27 28 29 30 31 32 33 34 35 36 37 38 39 40 41 42 43 44 45 46 47 48 49 50

000
ASUS44 KLZK 201605
RWRLZK

WEATHER ROUNDUP FOR ARKANSAS
NATIONAL WEATHER SERVICE LITTLE ROCK AR
1100 AM CDT WED AUG 20 2014

NOTE: "FAIR" INDICATES FEW OR NO CLOUDS BELOW 12,000 FEET WITH NO
SIGNIFICANT WEATHER AND/OR OBSTRUCTIONS TO VISIBILITY.

ARZ001-003-010-029-201700-
NORTHWEST ARKANSAS

CITY           SKY/WX    TMP DP  RH WIND       PRES   REMARKS
FAYETTEVILLE   SUNNY     84  69  60 S13       30.02R HX  88
FORT SMITH     SUNNY     86  69  56 VRB3      29.99R HX  90
HARRISON       SUNNY     85  71  63 SW7       30.04R HX  90
BENTONVILLE    SUNNY     84  70  61 SW13      30.03R HX  88
ROGERS         SUNNY     86  68  54 S14G21    30.03R HX  89
SILOAM SPGS    MOSUNNY   81  66  61 S12       30.02S
HIGHFILL       MOSUNNY   83  68  60 S12       30.02R HX  86
SPRINGDALE     SUNNY     84  70  61 SW14      30.04R HX  88
$$

ARZ004-005-016-201700-
NORTH CENTRAL ARKANSAS

CITY           SKY/WX    TMP DP  RH WIND       PRES   REMARKS
BATESVILLE     SUNNY     91  73  55 W9        30.00S HX 100
FLIPPIN        SUNNY     90  68  48 W10       30.01R HX  93
MTN HOME       SUNNY     88  70  55 SW7       30.00R HX  93
$$

ARZ040-041-201700-
WEST CENTRAL ARKANSAS

CITY           SKY/WX    TMP DP  RH WIND       PRES   REMARKS
MENA           SUNNY     84  73  70 CALM      30.05R HX  91
MOUNT IDA      SUNNY     84  71  65 VRB7      30.02R HX  89
$$

ARZ009-017-025-026-028-201700-
NORTHEAST ARKANSAS

CITY           SKY/WX    TMP DP  RH WIND       PRES   REMARKS
CORNING        LGT RAIN  90  75  62 SW10      30.00R HX 100
JONESBORO      SUNNY     89  74  60 VRB5      30.00R HX  98
NEWPORT        SUNNY     92  74  55 SW13      30.01S HX 101
WALNUT RIDGE   SUNNY     88  73  62 SW8       29.98S HX  96
BLYTHEVILLE    SUNNY     87  78  74 SW8       30.01R HX 100
$$

ARZ022-023-033-042-044-201700-
CENTRAL ARKANSAS

CITY           SKY/WX    TMP DP  RH WIND       PRES   REMARKS
LITTLE ROCK    SUNNY     87  70  56 W10       30.03R HX  92
N LITTLE ROCK  SUNNY     85  73  67 W5        30.03R HX  92
JACKSONVILLE   SUNNY     87  73  64 W7        30.03R HX  94
SEARCY           N/A     89  75  63 CALM        N/A  HX  98
HOT SPRINGS    SUNNY     84  72  67 W10       30.04S HX  89
RUSSELLVILLE   SUNNY     86  72  62 SW6       30.02R HX  92
CLINTON        FAIR      90  73  58 SW6       30.02R HAZE    HX  98
$$

ARZ036-201700-
EAST ARKANSAS

CITY           SKY/WX    TMP DP  RH WIND       PRES   REMARKS
WEST MEMPHIS   SUNNY     88  77  69 SW8       30.02R HX 100
$$

ARZ050-053-066-070-073-201700-
SOUTHWEST ARKANSAS

CITY           SKY/WX    TMP DP  RH WIND       PRES   REMARKS
ARKADELPHIA    FAIR      86  75  69 W8        30.04S HX  95
CAMDEN         MOSUNNY   86  73  66 W6        30.05R HX  93
TEXARKANA      MOSUNNY   82  74  76 SW10      30.04S HX  88
EL DORADO      SUNNY     84  75  74 SW8       30.05S HX  92
DE QUEEN       PTSUNNY   82  74  76 SW9       30.01F HX  88
$$

ARZ056-057-069-201700-
SOUTHEAST ARKANSAS

CITY           SKY/WX    TMP DP  RH WIND       PRES   REMARKS
PINE BLUFF     SUNNY     85  72  65 SW9       30.05R HX  91
STUTTGART      SUNNY     86  73  66 SW10      30.05R HX  93
MONTICELLO     SUNNY     86  72  62 SW8       30.06R HX  92

$$





USA.gov is the U.S. government's official web portal to all federal, state and local government web resources and services.